Albany, NY

3:26 AM EDT on October 15, 2019 (GMT -0400)
Albany International

Weather History for KALB - August, 2019

Change the Weather History Date:

Monday, August 5, 2019

  Actual Average Record
Temperature  
Mean Temperature 69 °F 72 °F  
Max Temperature 83 °F 82 °F 99 °F (1955)
Min Temperature 54 °F 61 °F 43 °F (1972)
Degree Days  
Heating Degree Days 0 0  
Month to date heating degree days 0 0  
Since 1 June heating degree days 27 57  
Since 1 July heating degree days 0 5  
Cooling Degree Days 4 7  
Month to date cooling degree days 39 35  
Year to date cooling degree days 545 401  
Since 1 June cooling degree days 523 371  
Growing Degree Days 18 (Base 50)    
Moisture  
Dew Point 53 °F    
Average Humidity 60    
Maximum Humidity 86    
Minimum Humidity 33    
Precipitation  
Precipitation 0.00 in 0.13 in 2.78 in (1980)
Month to date precipitation 0.81 0.64  
Year to date precipitation 25.67 23.33  
Sea Level Pressure  
Sea Level Pressure 29.98 in    
Wind  
Wind Speed 2 mph (NE)    
Max Wind Speed 9 mph    
Max Gust Speed 12 mph    
Visibility 10 miles    
Events      
T = Trace of Precipitation, MM = Missing Value Source: NWS Daily Summary

Daily Weather History Graph

Daily Weather History Graph

Search for Another Location

Airport or City:

Astronomy

Aug. 05, 2019 Rise Set
Actual Time 5:50 AM EDT 8:11 PM EDT
Civil Twilight 5:19 AM EDT 8:42 PM EDT
Nautical Twilight 4:39 AM EDT 9:21 PM EDT
Astronomical Twilight 3:56 AM EDT 10:05 PM EDT
Moon 11:10 AM EDT (8/5) 11:14 PM EDT (8/5)
Length of Visible Light 15h 23m
Length of Day
14h 20m
Waxing Crescent, 28% of the Moon is Illuminated
Aug 5
Waxing Crescent
Aug 7
First Quarter
Aug 15
Full
Aug 23
Last Quarter
Aug 30
New

Hourly Weather History & Observations

Time (EDT) Temp. Heat Index Dew Point Humidity Pressure Visibility Wind Dir Wind Speed Gust Speed Precip Events Conditions
12:51 AM 64.0 °F - 53.1 °F 67% 29.99 in 10.0 mi North 4.6 mph - N/A   Clear
1:51 AM 62.1 °F - 54.0 °F 75% 29.99 in 10.0 mi Calm Calm - N/A   Clear
2:51 AM 60.1 °F - 54.0 °F 80% 30.00 in 10.0 mi North 4.6 mph - N/A   Clear
3:51 AM 59.0 °F - 53.1 °F 81% 30.01 in 10.0 mi North 3.5 mph - N/A   Clear
4:51 AM 57.0 °F - 53.1 °F 87% 30.01 in 10.0 mi Calm Calm - N/A   Clear
5:51 AM 55.0 °F - 52.0 °F 89% 30.02 in 10.0 mi Calm Calm - N/A   Partly Cloudy
6:51 AM 57.9 °F - 53.1 °F 84% 30.03 in 10.0 mi Calm Calm - N/A   Partly Cloudy
7:51 AM 63.0 °F - 53.1 °F 70% 30.04 in 10.0 mi Calm Calm - N/A   Partly Cloudy
8:51 AM 66.9 °F - 54.0 °F 63% 30.04 in 10.0 mi Calm Calm - N/A   Partly Cloudy
9:51 AM 71.1 °F - 54.0 °F 55% 30.05 in 10.0 mi Calm Calm - N/A   Partly Cloudy
10:51 AM 73.9 °F - 53.1 °F 48% 30.04 in 10.0 mi WNW 3.5 mph - N/A   Partly Cloudy
11:51 AM 75.9 °F - 51.1 °F 42% 30.02 in 10.0 mi Variable 4.6 mph - N/A   Partly Cloudy
12:51 PM 78.1 °F - 50.0 °F 37% 30.00 in 10.0 mi Calm Calm - N/A   Partly Cloudy
1:51 PM 80.1 °F - 50.0 °F 35% 29.99 in 10.0 mi Variable 3.5 mph - N/A   Partly Cloudy
2:51 PM 82.0 °F - 52.0 °F 35% 29.97 in 10.0 mi NNE 4.6 mph - N/A   Scattered Clouds
3:51 PM 82.9 °F - 52.0 °F 34% 29.95 in 10.0 mi Calm Calm - N/A   Scattered Clouds
4:51 PM 82.0 °F - 50.0 °F 33% 29.95 in 10.0 mi Variable 3.5 mph - N/A   Partly Cloudy
5:51 PM 81.0 °F 80.4 °F 53.1 °F 38% 29.94 in 10.0 mi SE 5.8 mph - N/A   Partly Cloudy
6:51 PM 80.1 °F 80.0 °F 54.0 °F 40% 29.92 in 10.0 mi SE 8.1 mph - N/A   Partly Cloudy
7:51 PM 77.0 °F - 53.1 °F 43% 29.94 in 10.0 mi South 4.6 mph - N/A   Partly Cloudy
8:51 PM 75.0 °F - 55.0 °F 50% 29.93 in 10.0 mi SSE 3.5 mph - N/A   Partly Cloudy
9:51 PM 70.0 °F - 55.9 °F 61% 29.93 in 10.0 mi Calm Calm - N/A   Partly Cloudy
10:51 PM 66.0 °F - 55.9 °F 70% 29.94 in 10.0 mi Calm Calm - N/A   Clear
11:51 PM 64.0 °F - 55.9 °F 75% 29.93 in 10.0 mi Calm Calm - N/A   Clear